Glouster, Ohio
Current Conditions -  °F | °C
As of 8:15 PM on Friday 28 Nov 2014 (Local Time) from KUNI Reporting Station
Clear Clear  
Wind Chill: 30°   Ceiling: Unl
Heat Index: 30°   Visibility: 10mi
Dew Point: 18°   Wind: 0mph
Humidity: 62%   Direction: NA
Pressure: 30.21"   Gusts: NA
Location:  39.5°N, 82.08°W
Report Text: KUNI 290115Z AUTO 00000KT 10SM CLR M01/M08 A3021 RMK AO2 T10121077
Loading
Personal Weather Stations






























Interactive Weather Map New forecast layout! Learn more

10-Day Weather Forecast

Advertisements
Track Severe Weather on mobile